DECAYED
Showing default

JILIN-01 GAOFEN 3D 7, 52392 (Decayed)

Orbit data source: Space-Track

JILIN-01 GAOFEN 3D 7, 52392 was a payload satellite owned by Changguang WJ (CN) in LEO that was launched on Sat, 30 Apr 2022 UTC via a CHANG ZHENG 11 launch vehicle from the Yellow Sea Launch Area, China (YSLA). Payload-class satellites include a variety of spacecraft equipped with specific instruments for various scientific and technological missions. These include communications satellites like Starlink; space stations such as the ISS; scientific satellites like the Hubble; Earth observation satellites from companies like Planet Labs, Umbra, and HawkEye 360; GPS; miniature CubeSats for education and research; and military/defense satellites.

Not visible in the next 10 days
Identifier
52392, 2022-046E
Orbit
Decayed
Country
Flag of CNCN / PRC
Related business
Manufacturer
Changguang WJ
Mission
Decayed Commercial Imaging
Bus & Motor
JL-1, Unknown motor
Mass
43 kg wet, 43 kg dry
Launch date (UTC)
2022-04-30 (4 years ago)
Launch vehicle
CHANG ZHENG 11
Launch site
Yellow Sea Launch Area, China (YSLA)
Object type
Payload
Rocket body
Debris
Shape & HBR
Box + 2 Pan, 0.8 m
Radar Cross Section
2.000 m², Medium (>0.1 m² and < 1m²)

Expand to show TLE details & history
Last TLE update: 5 months ago

TLE from 5 months ago
0 JILIN-01 GAOFEN 3D 7
1 52392U 22046E   26025.78508520  .10439097  25929-5  47896-3 0  9997
2 52392  97.4708 145.3613 0009170 275.8607  84.1648 16.42458800208631
Epoch: 2026-01-25T18:50Z
TLE epoch observation values (Epoch: 2026-01-25T18:50:31.361Z)
Latitude
-0.00002°
Longitude
97.64042°
Altitude
161.918 km
Speed
7.809 km/s
True Right ascension
09h 41m 26s
True Declination
0° 00' 00"
Sunlit
Object was in full shadow at epoch
Visualization orbit readout
Latitude
Unknown
Longitude
Unknown
Altitude
Unknown
Speed
Unknown
Apparent Right ascension
Unknown
Apparent Declination
Unknown
Sunlit
N/A
Visualization observer readout
Local Sidereal Time
21:41:09
Azimuth
Unknown
Elevation
Unknown
Doppler factor
Unknown
Orbital elements
Apogee altitude
162.069 km
Perigee altitude
150.086 km
Semi-major axis
6,534.215 km
Eccentricity
0.00092
Inclination
97.4708°
RAAN
145.3613°
Arg. of periapsis
275.8607°
True anomaly
84.26935°
Mean anomaly
84.1648°
Eccentric anomaly
84.21707°
Mean motion
4.10916 °/min
Orbital period
87.61 mins
BSTAR
0.00047896
Loading maneuver chart data...
Computing Atmospheric mass density...
Loading historical data...
Loading historical data...
Loading historical data...
Loading historical data...
Loading historical data...
Loading historical data...
Loading historical data...

Documentation

Showing up to 5 results
|